This is the latest recevied weather packets stored in our database for station/object N4PWG. If no packets are shown the sender has not sent any weather packets the latest 10 day(s).
| Time | Temp. | Humidity | Pressure | Rain* | Wind** | Luminosity | Snow |
|---|---|---|---|---|---|---|---|
| 1777597650 | 15° C | 72% | 1032.5 hPa | 0 mm | - | 0 W/m² | - |
| 1777597346 | 15° C | 72% | 1032.6 hPa | 0 mm | - | 0 W/m² | - |
| 1777597042 | 15° C | 71% | 1032.3 hPa | 0 mm | - | 0 W/m² | - |
| 1777596738 | 15.56° C | 71% | 1032.6 hPa | 0 mm | - | 0 W/m² | - |
| 1777596435 | 15.56° C | 71% | 1032.4 hPa | 0 mm | - | 0 W/m² | - |
| 1777596132 | 15.56° C | 67% | 1032.3 hPa | 0 mm | - | 1 W/m² | - |
| 1777595828 | 16.11° C | 65% | 1032.3 hPa | 0 mm | - | 2 W/m² | - |
| 1777595523 | 16.11° C | 66% | 1032 hPa | 0 mm | - | 5 W/m² | - |
| 1777595220 | 16.11° C | 59% | 1032.2 hPa | 0 mm | - | 9 W/m² | - |
| 1777594915 | 16.67° C | 58% | 1031.9 hPa | 0 mm | - | 9 W/m² | - |
| 1777594612 | 16.67° C | 56% | 1032 hPa | 0 mm | - | 11 W/m² | - |
| 1777594309 | 17.22° C | 52% | 1032.1 hPa | 0 mm | - | 16 W/m² | - |
| 1777594005 | 17.22° C | 53% | 1031.9 hPa | 0 mm | - | 18 W/m² | - |
| 1777593701 | 17.22° C | 51% | 1032.1 hPa | 0 mm | - | 23 W/m² | - |
| 1777593397 | 17.78° C | 50% | 1031.8 hPa | 0 mm | - | 30 W/m² | - |
| 1777593096 | 18.33° C | 49% | 1031.9 hPa | 0 mm | - | 36 W/m² | - |
| 1777592795 | 18.89° C | 50% | 1032 hPa | 0 mm | - | 52 W/m² | - |
| 1777592492 | 18.89° C | 48% | 1032.1 hPa | 0 mm | - | 47 W/m² | - |
| 1777592187 | 18.89° C | 47% | 1032.2 hPa | 0 mm | - | 70 W/m² | - |
| 1777591884 | 18.89° C | 47% | 1032 hPa | 0 mm | - | 94 W/m² | - |
| 1777591580 | 18.89° C | 49% | 1032 hPa | 0 mm | - | 106 W/m² | - |
| 1777591276 | 18.33° C | 48% | 1032 hPa | 0 mm | - | 117 W/m² | - |
| 1777590972 | 17.78° C | 47% | 1032.3 hPa | 0 mm | - | 98 W/m² | - |
| 1777590668 | 18.33° C | 50% | 1032.1 hPa | 0 mm | - | 72 W/m² | - |
| 1777590364 | 18.89° C | 45% | 1032.3 hPa | 0 mm | - | 95 W/m² | - |
* Rain latest hour (hover to see other rain measurements)
** Current wind speed in m/s (hover to see current wind gust speed)